Location: Bucquoy
(50.1391°N, 2.7097°E)
Time: 22:32:46
(UTC+00:00)

Cosmos 2344 - Pass Details

Date: 06 May 2021
Orbit: 1239 x 3003 km, 63.3° (Epoch: 21 June)

Event Time Altitude Azimuth Distance (km) Brightness Sun altitude
Rises 00:28:44 0° 315° (NW) 4,455 6.9 -22.6°
Reaches altitude 10° 00:31:18 10° 316° (NW) 3,600 6.4 -22.6°
Maximum altitude 00:40:16 84° 46° (NE) 1,807 4.3 -22.2°
Drops below altitude 10° 00:52:49 10° 136° (SE) 4,907 6.3 -21.7°
Sets 00:56:56 0° 137° (SE) 6,148 6.9 -21.5°
